| time (UTC) | temp F | wind direction | speed MPH | gust MPH | rain 1hr in | rain 24hr in | rain mn in | humidity % | barometer mb |
| 20260506013027 | 56 | 284 | 4.0 | 9.0 | 0.00 | 0.00 | 0.00 | 83 | 999.0 |
| 20260506011529 | 56 | 281 | 3.0 | 8.0 | 0.00 | 0.00 | 0.00 | 83 | 999.0 |
| 20260506010115 | 56 | 15 | 2.0 | 6.0 | 0.00 | 0.00 | 0.00 | 84 | 999.1 |
| 20260506004554 | 56 | 223 | 0.0 | 5.0 | 0.00 | 0.00 | 0.00 | 84 | 999.0 |
| 20260506003024 | 56 | 33 | 2.0 | 5.0 | 0.00 | 0.00 | 0.00 | 86 | 999.1 |
| 20260506001523 | 55 | 284 | 4.0 | 6.0 | 0.00 | 0.00 | 0.00 | 85 | 999.1 |
| 20260506000022 | 56 | 42 | 3.0 | 5.0 | 0.00 | 0.00 | 0.00 | 85 | 999.1 |
| 20260505234533 | 55 | 26 | 4.0 | 6.0 | 0.00 | 0.00 | 0.00 | 85 | 999.3 |
| 20260505233023 | 55 | 21 | 3.0 | 6.0 | 0.00 | 0.00 | 0.00 | 85 | 999.3 |
| 20260505231517 | 55 | 11 | 2.0 | 5.0 | 0.00 | 0.00 | 0.00 | 87 | 999.3 |
| 20260505230014 | 55 | 21 | 3.0 | 7.0 | 0.00 | 0.00 | 0.00 | 87 | 999.3 |
| 20260505224513 | 55 | 360 | 3.0 | 6.0 | 0.00 | 0.00 | 0.00 | 88 | 999.4 |
| 20260505223012 | 54 | 5 | 3.0 | 5.0 | 0.00 | 0.00 | 0.00 | 88 | 999.5 |
| 20260505221513 | 54 | 360 | 2.0 | 6.0 | 0.00 | 0.00 | 0.00 | 88 | 999.6 |
| 20260505220009 | 54 | 42 | 4.0 | 8.0 | 0.00 | 0.00 | 0.00 | 88 | 999.7 |
| 20260505214510 | 55 | 271 | 2.0 | 5.0 | 0.00 | 0.00 | 0.00 | 88 | 999.7 |
| 20260505213008 | 54 | 264 | 2.0 | 6.0 | 0.00 | 0.00 | 0.00 | 88 | 999.7 |
| 20260505211507 | 54 | 284 | 1.0 | 4.0 | 0.00 | 0.00 | 0.00 | 88 | 999.7 |
| 20260505210003 | 54 | 284 | 2.0 | 5.0 | 0.00 | 0.00 | 0.00 | 89 | 999.7 |
| 20260505204501 | 54 | 257 | 3.0 | 7.0 | 0.00 | 0.00 | 0.00 | 90 | 999.8 |
| 20260505203100 | 54 | 46 | 3.0 | 5.0 | 0.00 | 0.00 | 0.00 | 91 | 999.8 |
| 20260505203003 | 54 | 17 | 3.0 | 5.0 | 0.00 | 0.00 | 0.00 | 91 | 999.8 |
| 20260505201601 | 53 | 13 | 2.0 | 4.0 | 0.00 | 0.00 | 0.00 | 92 | 999.7 |
| 20260505200105 | 53 | 12 | 2.0 | 5.0 | 0.00 | 0.00 | 0.00 | 92 | 999.8 |
| 20260505194605 | 53 | 257 | 1.0 | 4.0 | 0.00 | 0.00 | 0.00 | 93 | 999.8 |
| 20260505193053 | 52 | 196 | 2.0 | 5.0 | 0.00 | 0.00 | 0.00 | 94 | 999.8 |
| 20260505191556 | 52 | 205 | 2.0 | 4.0 | 0.00 | 0.00 | 0.00 | 95 | 999.8 |
| 20260505190023 | 52 | 205 | 0.0 | 8.0 | 0.00 | 0.00 | 0.00 | 97 | 999.7 |
| 20260505184523 | 51 | 178 | 2.0 | 5.0 | 0.00 | 0.00 | 0.00 | 97 | 999.8 |
| 20260505183018 | 51 | 192 | 2.0 | 5.0 | 0.00 | 0.00 | 0.00 | 98 | 999.8 |
| 20260505181514 | 51 | 175 | 4.0 | 7.0 | 0.00 | 0.00 | 0.00 | 98 | 999.8 |
| 20260505180017 | 50 | 207 | 5.0 | 7.0 | 0.00 | 0.00 | 0.00 | 98 | 999.6 |
| 20260505174521 | 49 | 197 | 1.0 | 4.0 | 0.00 | 0.00 | 0.00 | 98 | 999.6 |
| 20260505173012 | 49 | 205 | 3.0 | 6.0 | 0.00 | 0.00 | 0.00 | 98 | 999.5 |
| 20260505171510 | 49 | 203 | 3.0 | 5.0 | 0.00 | 0.00 | 0.00 | 98 | 999.5 |
| 20260505170006 | 49 | 181 | 3.0 | 5.0 | 0.00 | 0.00 | 0.00 | 98 | 999.4 |
| 20260505164503 | 48 | 144 | 3.0 | 5.0 | 0.00 | 0.00 | 0.00 | 98 | 999.3 |
| 20260505163105 | 48 | 193 | 3.0 | 7.0 | 0.00 | 0.00 | 0.00 | 98 | 999.2 |
| 20260505161536 | 48 | 168 | 3.0 | 6.0 | 0.00 | 0.00 | 0.00 | 98 | 999.3 |
| 20260505153029 | 48 | 187 | 4.0 | 8.0 | 0.00 | 0.00 | 0.00 | 98 | 999.2 |
| 20260505151525 | 48 | 196 | 5.0 | 7.0 | 0.00 | 0.00 | 0.00 | 98 | 999.1 |
| 20260505124539 | 48 | 153 | 7.0 | 9.0 | 0.00 | 0.00 | 0.00 | 97 | 998.2 |
| 20260505123036 | 48 | 158 | 8.0 | 10.0 | 0.00 | 0.00 | 0.00 | 97 | 998.1 |
| 20260505121533 | 48 | 155 | 7.0 | 9.0 | 0.00 | 0.00 | 0.00 | 97 | 998.0 |
| 20260505120033 | 48 | 155 | 6.0 | 10.0 | 0.00 | 0.00 | 0.00 | 97 | 997.9 |
| 20260505114531 | 48 | 163 | 8.0 | 10.0 | 0.00 | 0.00 | 0.00 | 97 | 997.8 |
| 20260505113028 | 48 | 163 | 7.0 | 11.0 | 0.00 | 0.00 | 0.00 | 97 | 997.7 |
| 20260505111559 | 48 | 158 | 7.0 | 11.0 | 0.00 | 0.00 | 0.00 | 97 | 997.7 |
| 20260505101551 | 48 | 152 | 8.0 | 14.0 | 0.00 | 0.00 | 0.00 | 96 | 997.3 |
| 20260505100052 | 48 | 153 | 11.0 | 14.0 | 0.00 | 0.00 | 0.00 | 96 | 997.4 |
| 20260505094547 | 48 | 167 | 8.0 | 16.0 | 0.00 | 0.00 | 0.00 | 96 | 997.3 |
| 20260505093047 | 48 | 156 | 11.0 | 16.0 | 0.00 | 0.00 | 0.00 | 96 | 997.2 |
| 20260505091601 | 48 | 173 | 13.0 | 16.0 | 0.00 | 0.00 | 0.00 | 96 | 997.1 |
| 20260505090044 | 48 | 148 | 11.0 | 18.0 | 0.00 | 0.00 | 0.00 | 95 | 997.1 |
| 20260505084538 | 49 | 153 | 11.0 | 17.0 | 0.00 | 0.00 | 0.00 | 95 | 997.1 |
| 20260505083036 | 49 | 158 | 7.0 | 14.0 | 0.00 | 0.00 | 0.00 | 95 | 997.1 |
| 20260505081538 | 49 | 163 | 12.0 | 16.0 | 0.00 | 0.00 | 0.00 | 95 | 997.0 |
| 20260505080032 | 49 | 161 | 12.0 | 16.0 | 0.00 | 0.00 | 0.00 | 94 | 996.9 |
| 20260505074528 | 50 | 164 | 13.0 | 18.0 | 0.00 | 0.00 | 0.00 | 93 | 996.9 |
| 20260505073030 | 50 | 157 | 14.0 | 18.0 | 0.00 | 0.00 | 0.00 | 92 | 996.8 |
| 20260505071523 | 51 | 146 | 12.0 | 16.0 | 0.00 | 0.00 | 0.00 | 91 | 996.7 |
| 20260505070021 | 51 | 157 | 12.0 | 18.0 | 0.00 | 0.00 | 0.00 | 91 | 996.6 |
| 20260505064549 | 51 | 150 | 13.0 | 18.0 | 0.00 | 0.00 | 0.00 | 90 | 996.6 |
| 20260505063105 | 52 | 164 | 10.0 | 16.0 | 0.00 | 0.00 | 0.00 | 90 | 996.5 |
| 20260505061612 | 52 | 144 | 11.0 | 18.0 | 0.00 | 0.00 | 0.00 | 90 | 996.5 |
| 20260505060051 | 53 | 155 | 12.0 | 19.0 | 0.00 | 0.00 | 0.00 | 89 | 996.5 |
| 20260505054545 | 53 | 155 | 11.0 | 18.0 | 0.00 | 0.00 | 0.00 | 89 | 996.5 |
| 20260505053045 | 54 | 163 | 12.0 | 15.0 | 0.00 | 0.00 | 0.00 | 88 | 996.5 |
| 20260505051605 | 55 | 165 | 10.0 | 15.0 | 0.00 | 0.00 | 0.00 | 88 | 996.4 |
| 20260505041535 | 57 | 161 | 5.0 | 9.0 | 0.00 | 0.00 | 0.00 | 85 | 996.0 |
| 20260505040035 | 58 | 168 | 7.0 | 10.0 | 0.00 | 0.00 | 0.00 | 85 | 995.8 |
| 20260505034534 | 59 | 171 | 8.0 | 10.0 | 0.00 | 0.00 | 0.00 | 84 | 995.5 |
| 20260505033034 | 60 | 167 | 7.0 | 12.0 | 0.00 | 0.00 | 0.00 | 85 | 995.3 |
| 20260505031531 | 60 | 178 | 6.0 | 8.0 | 0.00 | 0.00 | 0.00 | 83 | 995.0 |
| 20260505030032 | 61 | 166 | 4.0 | 9.0 | 0.00 | 0.00 | 0.00 | 81 | 994.8 |
| 20260505024532 | 62 | 163 | 5.0 | 10.0 | 0.00 | 0.00 | 0.00 | 79 | 994.7 |
| 20260505023029 | 62 | 184 | 6.0 | 10.0 | 0.00 | 0.00 | 0.00 | 77 | 994.5 |
| 20260505021529 | 63 | 162 | 5.0 | 9.0 | 0.00 | 0.00 | 0.00 | 76 | 994.5 |
| 20260505020105 | 64 | 180 | 6.0 | 9.0 | 0.00 | 0.00 | 0.00 | 74 | 994.8 |
| 20260505014558 | 63 | 175 | 5.0 | 10.0 | 0.00 | 0.00 | 0.00 | 73 | 994.8 |